Location: Riddle Hill
(39.7867°N, 89.7645°W)
Time: 21:38:40
(UTC+00:00)

USA 308 - Pass Details

Date: 29 October 2020
Orbit: 571 x 578 km, 54.0° (Epoch: 30 November)

Event Time Altitude Azimuth Distance (km) Brightness Sun altitude
Rises 23:29:46 0° 317° (NW) 2,787 6.9 -6.4°
Reaches altitude 10° 23:32:29 10° 333° (NNW) 1,885 5.7 -6.9°
Maximum altitude 23:35:48 21° 24° (NNE) 1,299 4.4 -7.5°
Enters shadow 23:39:03 10° 74° (ENE) 1,860 4.8 -8.1°
